Tracking 20241 objects as of 25-Jan-2020
HD Live streaming from Space Station
objects crossing your sky now

COSMOS 733

Track COSMOS 733 now!
10-day predictions
COSMOS 733 is classified as:


NORAD ID: 7822
Int'l Code: 1975-045B
Perigee: 1,477.2 km
Apogee: 1,560.4 km
Inclination: 74.0 °
Period: 116.2 minutes
Semi major axis: 7889 km
RCS: 0.717 m2 (medium)
Launch date: May 28, 1975
Source: Commonwealth of Independent States (former USSR) (CIS)
Launch site: PLESETSK MISSILE AND SPACE COMPLEX (PKMTR)
aabbcc
Your satellite tracking list
Your tracking list is empty




NASA's NSSDC Master Catalog

Two Line Element Set (TLE):
1  7822U 75045B   20025.42150398 +.00000011 +00000-0 +19717-3 0  9991
2  7822 074.0161 258.5137 0052771 034.1839 138.6531 12.38805625019862
Source of the keplerian elements: AFSPC